sat.trackr.live / text

‹ back to catalog

STARLINK-35641

NORAD 66167 · 2025-240X

PAYLOAD ACTIVE UNKNOWN

§ Identity

Operator
Country
US
Launch date
2025-10-25
Launch site
AFWTR
Launch vehicle
Mass (kg)
RCS (m²)

Purposes: comms

External: N2YO · Heavens-Above · Gunter

§ Orbital elements

Epoch: 2026-09-20T07:20:04.848288Z

Period
93.85 min
Inclination
53.1575°
Eccentricity
0.0001355
Mean motion
15.34400665 rev/d
Perigee alt
461.8 km
Apogee alt
463.6 km
Semi-major
6,840.8 km
B*
4.2695e-4
RAAN
234.6725°
Arg perigee
85.2218°
Mean anomaly
274.8940°
Rev number
5,184

§ Raw data

STARLINK-356411 66167U 25240X   26263.30561167  .00014076  00000+0  42695-3 0  99932 66167  53.1575 234.6725 0001355  85.2218 274.8940 15.34400665 51849

JSON: /api/v1/satellites/66167 · /tle

For live sub-satellite position, see the globe view (requires WebGL).

§ Visibility from observer

Set your observer location to see the next 7 days of passes ≥ 10°. The values pass through the URL so the page stays shareable.

No JS? Fill the form by hand. The geolocation button needs JavaScript.